Hawkhurst, United Kingdom
Current Conditions -  °F | °C
As of 5:20 PM on Wednesday 26 Nov 2014 (Local Time) from EGMD Reporting Station
Haze Haze  
Wind Chill: 54°   Ceiling: 700
Heat Index: 54°   Visibility: 3mi
Dew Point: 54°   Wind: 6mph
Humidity: 100%   Direction: 130°SE
Pressure: 29.8"   Gusts: NA
Location:  51.05°N, 0.51°E
Report Text: EGMD 261720Z 13005KT 5000 BR BKN007 12/12 Q1009
Loading
Personal Weather Stations






























Interactive Weather Map New forecast layout! Learn more

10-Day Weather Forecast

Advertisements
Track Severe Weather on mobile